Time,TemperatureF,DewpointF,PressureIn,WindDirection,WindDirectionDegrees,WindSpeedMPH,WindSpeedGustMPH,Humidity,HourlyPrecipIn,Conditions,Clouds,dailyrainin,SoftwareType,DateUTC
2013-08-14 00:00:00,54.8,50.1,30.01,WNW,299,4.0,4.0,84,0.00,,SKC,0.00,VWS V14.01,2013-08-14 04:00:00,
2013-08-14 00:01:00,54.9,50.2,30.01,NW,308,0.0,4.0,84,0.00,,SKC,0.00,VWS V14.01,2013-08-14 04:01:00,
2013-08-14 00:06:00,54.8,50.1,30.02,WNW,298,0.0,3.0,84,0.00,,SKC,0.00,VWS V14.01,2013-08-14 04:06:00,
2013-08-14 00:11:00,54.7,50.0,30.02,NW,311,0.0,3.0,84,0.00,,SKC,0.00,VWS V14.01,2013-08-14 04:11:00,
2013-08-14 00:16:00,54.5,49.8,30.02,NW,308,1.0,1.0,84,0.00,,SKC,0.00,VWS V14.01,2013-08-14 04:16:00,
2013-08-14 00:21:00,54.4,49.7,30.02,West,280,0.0,0.0,84,0.00,,SKC,0.00,VWS V14.01,2013-08-14 04:21:00,
2013-08-14 00:26:00,54.3,49.9,30.02,WNW,285,1.0,1.0,85,0.00,,SKC,0.00,VWS V14.01,2013-08-14 04:26:00,
2013-08-14 00:31:00,54.4,50.0,30.02,NW,315,0.0,3.0,85,0.00,,SKC,0.00,VWS V14.01,2013-08-14 04:31:00,
2013-08-14 00:36:00,54.4,50.0,30.02,NW,304,2.0,2.0,85,0.00,,SKC,0.00,VWS V14.01,2013-08-14 04:36:00,
2013-08-14 00:41:00,54.4,50.0,30.02,WNW,300,0.0,3.0,85,0.00,,SKC,0.00,VWS V14.01,2013-08-14 04:41:00,
2013-08-14 00:46:00,54.4,50.0,30.03,NW,306,0.0,0.0,85,0.00,,SKC,0.00,VWS V14.01,2013-08-14 04:46:00,
2013-08-14 00:51:00,54.2,49.8,30.03,NW,312,0.0,2.0,85,0.00,,SKC,0.00,VWS V14.01,2013-08-14 04:51:00,
2013-08-14 00:56:00,54.2,49.8,30.03,NW,304,0.0,2.0,85,0.00,,SKC,0.00,VWS V14.01,2013-08-14 04:56:00,
2013-08-14 01:01:00,54.1,49.7,30.02,WNW,291,0.0,2.0,85,0.00,,SKC,0.00,VWS V14.01,2013-08-14 05:01:00,
2013-08-14 01:06:00,53.9,49.5,30.02,NW,310,0.0,2.0,85,0.00,,SKC,0.00,VWS V14.01,2013-08-14 05:06:00,
2013-08-14 01:12:00,53.7,49.6,30.03,NW,306,0.0,1.0,86,0.00,,SKC,0.00,VWS V14.01,2013-08-14 05:12:00,
2013-08-14 01:17:00,53.6,49.5,30.03,NW,307,0.0,3.0,86,0.00,,SKC,0.00,VWS V14.01,2013-08-14 05:17:00,
2013-08-14 01:22:00,53.4,49.3,30.03,WNW,302,0.0,2.0,86,0.00,,SKC,0.00,VWS V14.01,2013-08-14 05:22:00,
2013-08-14 01:27:00,53.2,49.1,30.03,WNW,292,0.0,3.0,86,0.00,,SKC,0.00,VWS V14.01,2013-08-14 05:27:00,
2013-08-14 01:32:00,53.0,49.2,30.03,WNW,296,0.0,2.0,87,0.00,,SKC,0.00,VWS V14.01,2013-08-14 05:32:00,
2013-08-14 01:37:00,52.8,49.0,30.03,WNW,296,0.0,1.0,87,0.00,,SKC,0.00,VWS V14.01,2013-08-14 05:37:00,
2013-08-14 01:42:00,52.6,48.8,30.03,WNW,296,0.0,1.0,87,0.00,,SKC,0.00,VWS V14.01,2013-08-14 05:42:00,
2013-08-14 01:47:00,52.4,48.7,30.03,WNW,296,0.0,2.0,87,0.00,,SKC,0.00,VWS V14.01,2013-08-14 05:47:00,
2013-08-14 01:52:00,52.2,48.8,30.04,WNW,292,1.0,2.0,88,0.00,,SKC,0.00,VWS V14.01,2013-08-14 05:52:00,
2013-08-14 01:57:00,52.0,48.6,30.03,WNW,292,0.0,0.0,88,0.00,,SKC,0.00,VWS V14.01,2013-08-14 05:57:00,
2013-08-14 02:02:00,51.9,48.5,30.04,WNW,292,0.0,1.0,88,0.00,,SKC,0.00,VWS V14.01,2013-08-14 06:02:00,
2013-08-14 02:07:00,51.8,48.4,30.03,WNW,292,0.0,1.0,88,0.00,,SKC,0.00,VWS V14.01,2013-08-14 06:07:00,
2013-08-14 02:12:00,51.5,48.1,30.03,NW,307,0.0,1.0,88,0.00,,SKC,0.00,VWS V14.01,2013-08-14 06:12:00,
2013-08-14 02:17:00,51.4,48.0,30.04,NW,307,0.0,1.0,88,0.00,,SKC,0.00,VWS V14.01,2013-08-14 06:17:00,
2013-08-14 02:22:00,51.2,47.8,30.04,NW,307,0.0,0.0,88,0.00,,SKC,0.00,VWS V14.01,2013-08-14 06:22:00,
2013-08-14 02:27:00,51.0,47.6,30.04,NW,308,0.0,0.0,88,0.00,,SKC,0.00,VWS V14.01,2013-08-14 06:27:00,
2013-08-14 02:32:00,51.0,47.9,30.04,NW,308,0.0,0.0,89,0.00,,SKC,0.00,VWS V14.01,2013-08-14 06:32:00,
2013-08-14 02:37:00,50.8,47.7,30.04,NW,308,0.0,0.0,89,0.00,,SKC,0.00,VWS V14.01,2013-08-14 06:37:00,
2013-08-14 02:42:00,50.7,47.6,30.04,NW,306,0.0,1.0,89,0.00,,SKC,0.00,VWS V14.01,2013-08-14 06:42:00,
2013-08-14 02:47:00,50.5,47.4,30.04,NW,306,1.0,1.0,89,0.00,,SKC,0.00,VWS V14.01,2013-08-14 06:47:00,
2013-08-14 02:52:00,50.5,47.7,30.04,NW,309,2.0,2.0,90,0.00,,SKC,0.00,VWS V14.01,2013-08-14 06:52:00,
2013-08-14 02:57:00,50.4,47.6,30.04,NW,309,0.0,0.0,90,0.00,,SKC,0.00,VWS V14.01,2013-08-14 06:57:00,
2013-08-14 03:02:00,50.3,47.5,30.04,NW,310,0.0,0.0,90,0.00,,SKC,0.00,VWS V14.01,2013-08-14 07:02:00,
2013-08-14 03:07:00,50.1,47.3,30.04,NW,310,0.0,0.0,90,0.00,,SKC,0.00,VWS V14.01,2013-08-14 07:07:00,
2013-08-14 03:12:00,50.0,47.2,30.04,NW,310,0.0,0.0,90,0.00,,SKC,0.00,VWS V14.01,2013-08-14 07:12:00,
2013-08-14 03:17:00,49.8,47.0,30.04,NW,310,2.0,2.0,90,0.00,,SKC,0.00,VWS V14.01,2013-08-14 07:17:00,
2013-08-14 03:23:00,49.7,46.9,30.04,NW,310,0.0,2.0,90,0.00,,SKC,0.00,VWS V14.01,2013-08-14 07:23:00,
2013-08-14 03:28:00,49.7,46.9,30.04,NW,310,0.0,0.0,90,0.00,,SKC,0.00,VWS V14.01,2013-08-14 07:28:00,
2013-08-14 03:33:00,49.6,46.8,30.04,NW,310,0.0,0.0,90,0.00,,SKC,0.00,VWS V14.01,2013-08-14 07:33:00,
2013-08-14 03:38:00,49.5,46.7,30.04,NW,310,0.0,1.0,90,0.00,,SKC,0.00,VWS V14.01,2013-08-14 07:38:00,
2013-08-14 03:43:00,49.3,46.5,30.04,NW,310,1.0,2.0,90,0.00,,SKC,0.00,VWS V14.01,2013-08-14 07:43:00,
2013-08-14 03:48:00,49.3,46.8,30.04,NW,310,0.0,0.0,91,0.00,,SKC,0.00,VWS V14.01,2013-08-14 07:48:00,
2013-08-14 03:53:00,49.3,46.8,30.04,NW,310,0.0,0.0,91,0.00,,SKC,0.00,VWS V14.01,2013-08-14 07:53:00,
2013-08-14 03:58:00,49.2,46.7,30.05,NW,310,1.0,1.0,91,0.00,,SKC,0.00,VWS V14.01,2013-08-14 07:58:00,
2013-08-14 04:03:00,49.2,46.7,30.05,NW,309,0.0,0.0,91,0.00,,SKC,0.00,VWS V14.01,2013-08-14 08:03:00,
2013-08-14 04:08:00,49.2,46.7,30.05,NW,310,0.0,0.0,91,0.00,,SKC,0.00,VWS V14.01,2013-08-14 08:08:00,
2013-08-14 04:13:00,49.1,46.6,30.05,NW,310,0.0,1.0,91,0.00,,SKC,0.00,VWS V14.01,2013-08-14 08:13:00,
2013-08-14 04:18:00,48.9,46.4,30.05,NW,309,0.0,1.0,91,0.00,,SKC,0.00,VWS V14.01,2013-08-14 08:18:00,
2013-08-14 04:23:00,48.8,46.3,30.05,NW,309,0.0,0.0,91,0.00,,SKC,0.00,VWS V14.01,2013-08-14 08:23:00,
2013-08-14 04:28:00,48.7,46.2,30.05,NW,309,0.0,0.0,91,0.00,,SKC,0.00,VWS V14.01,2013-08-14 08:28:00,
2013-08-14 04:33:00,48.6,46.1,30.06,WNW,303,0.0,0.0,91,0.00,,SKC,0.00,VWS V14.01,2013-08-14 08:33:00,
2013-08-14 04:38:00,48.5,46.0,30.05,WNW,303,0.0,0.0,91,0.00,,SKC,0.00,VWS V14.01,2013-08-14 08:38:00,
2013-08-14 04:43:00,48.5,46.0,30.05,WNW,303,0.0,0.0,91,0.00,,SKC,0.00,VWS V14.01,2013-08-14 08:43:00,
2013-08-14 04:48:00,48.4,45.9,30.06,WNW,303,0.0,0.0,91,0.00,,SKC,0.00,VWS V14.01,2013-08-14 08:48:00,
2013-08-14 04:53:00,48.3,45.8,30.06,WNW,303,0.0,0.0,91,0.00,,SKC,0.00,VWS V14.01,2013-08-14 08:53:00,
2013-08-14 04:58:00,48.1,45.9,30.06,WNW,303,0.0,0.0,92,0.00,,SKC,0.00,VWS V14.01,2013-08-14 08:58:00,
2013-08-14 05:03:00,48.1,45.9,30.06,WNW,303,0.0,1.0,92,0.00,,SKC,0.00,VWS V14.01,2013-08-14 09:03:00,
2013-08-14 05:08:00,48.0,45.8,30.06,WNW,303,0.0,0.0,92,0.00,,SKC,0.00,VWS V14.01,2013-08-14 09:08:00,
2013-08-14 05:13:00,48.0,45.8,30.06,WNW,303,0.0,0.0,92,0.00,,SKC,0.00,VWS V14.01,2013-08-14 09:13:00,
2013-08-14 05:18:00,48.0,45.8,30.06,WNW,303,0.0,0.0,92,0.00,,SKC,0.00,VWS V14.01,2013-08-14 09:18:00,
2013-08-14 05:23:00,47.9,45.7,30.06,WNW,303,0.0,0.0,92,0.00,,SKC,0.00,VWS V14.01,2013-08-14 09:23:00,
2013-08-14 05:28:00,47.8,45.6,30.06,WNW,303,0.0,0.0,92,0.00,,SKC,0.00,VWS V14.01,2013-08-14 09:28:00,
2013-08-14 05:33:00,47.7,45.5,30.07,WNW,303,0.0,0.0,92,0.00,,SKC,0.00,VWS V14.01,2013-08-14 09:33:00,
2013-08-14 05:38:00,47.7,45.5,30.07,WNW,303,0.0,0.0,92,0.00,,SKC,0.00,VWS V14.01,2013-08-14 09:38:00,
2013-08-14 05:43:00,47.6,45.4,30.07,WNW,303,0.0,0.0,92,0.00,,SKC,0.00,VWS V14.01,2013-08-14 09:43:00,
2013-08-14 05:48:00,47.5,45.3,30.07,WNW,303,0.0,0.0,92,0.00,,SKC,0.00,VWS V14.01,2013-08-14 09:48:00,
2013-08-14 05:53:00,47.4,45.2,30.07,WNW,303,2.0,2.0,92,0.00,,SKC,0.00,VWS V14.01,2013-08-14 09:53:00,
2013-08-14 05:58:00,47.4,45.2,30.07,WNW,303,1.0,1.0,92,0.00,,SKC,0.00,VWS V14.01,2013-08-14 09:58:00,
2013-08-14 06:03:00,47.3,45.1,30.07,WNW,303,0.0,0.0,92,0.00,,SKC,0.00,VWS V14.01,2013-08-14 10:03:00,
2013-08-14 06:08:00,47.2,45.0,30.08,WNW,303,0.0,1.0,92,0.00,,SKC,0.00,VWS V14.01,2013-08-14 10:08:00,
2013-08-14 06:13:00,47.0,44.8,30.08,WNW,303,0.0,0.0,92,0.00,,SKC,0.00,VWS V14.01,2013-08-14 10:13:00,
2013-08-14 06:18:00,46.9,44.7,30.08,WNW,303,0.0,0.0,92,0.00,,SKC,0.00,VWS V14.01,2013-08-14 10:18:00,
2013-08-14 06:24:00,46.9,44.7,30.08,WNW,302,1.0,1.0,92,0.00,,SKC,0.00,VWS V14.01,2013-08-14 10:24:00,
2013-08-14 06:29:00,46.9,44.7,30.08,WNW,302,0.0,0.0,92,0.00,,SKC,0.00,VWS V14.01,2013-08-14 10:29:00,
2013-08-14 06:34:00,46.9,44.7,30.09,WNW,302,0.0,0.0,92,0.00,,SKC,0.00,VWS V14.01,2013-08-14 10:34:00,
2013-08-14 06:39:00,46.8,44.6,30.09,WNW,302,0.0,1.0,92,0.00,,SKC,0.00,VWS V14.01,2013-08-14 10:39:00,
2013-08-14 06:44:00,46.9,44.7,30.09,West,275,0.0,0.0,92,0.00,,SKC,0.00,VWS V14.01,2013-08-14 10:44:00,
2013-08-14 06:49:00,46.8,44.6,30.09,West,275,0.0,1.0,92,0.00,,SKC,0.00,VWS V14.01,2013-08-14 10:49:00,
2013-08-14 06:54:00,46.7,44.5,30.09,West,275,0.0,0.0,92,0.00,,SKC,0.00,VWS V14.01,2013-08-14 10:54:00,
2013-08-14 06:59:00,46.6,44.4,30.09,West,275,0.0,0.0,92,0.00,,SKC,0.00,VWS V14.01,2013-08-14 10:59:00,
2013-08-14 07:04:00,46.6,44.4,30.09,West,275,0.0,0.0,92,0.00,,SKC,0.00,VWS V14.01,2013-08-14 11:04:00,
2013-08-14 07:09:00,46.7,44.5,30.09,West,275,0.0,1.0,92,0.00,,SKC,0.00,VWS V14.01,2013-08-14 11:09:00,
2013-08-14 07:14:00,46.8,44.9,30.10,West,275,1.0,2.0,93,0.00,,SKC,0.00,VWS V14.01,2013-08-14 11:14:00,
2013-08-14 07:19:00,46.9,45.0,30.10,West,275,0.0,0.0,93,0.00,,SKC,0.00,VWS V14.01,2013-08-14 11:19:00,
2013-08-14 07:24:00,47.1,45.2,30.10,West,275,0.0,0.0,93,0.00,,SKC,0.00,VWS V14.01,2013-08-14 11:24:00,
2013-08-14 07:29:00,47.4,45.5,30.10,West,275,0.0,0.0,93,0.00,,SKC,0.00,VWS V14.01,2013-08-14 11:29:00,
2013-08-14 07:34:00,47.7,45.8,30.10,WNW,287,0.0,2.0,93,0.00,,SKC,0.00,VWS V14.01,2013-08-14 11:34:00,
2013-08-14 07:39:00,48.1,46.2,30.11,West,269,0.0,2.0,93,0.00,,SKC,0.00,VWS V14.01,2013-08-14 11:39:00,
2013-08-14 07:44:00,48.4,46.5,30.11,West,277,0.0,1.0,93,0.00,,SKC,0.00,VWS V14.01,2013-08-14 11:44:00,
2013-08-14 07:49:00,48.8,46.9,30.11,West,278,0.0,2.0,93,0.00,,SKC,0.00,VWS V14.01,2013-08-14 11:49:00,
2013-08-14 07:54:00,49.0,47.1,30.11,West,263,2.0,4.0,93,0.00,,SKC,0.00,VWS V14.01,2013-08-14 11:54:00,
2013-08-14 07:59:00,49.1,47.2,30.11,WNW,294,0.0,2.0,93,0.00,,SKC,0.00,VWS V14.01,2013-08-14 11:59:00,
2013-08-14 08:04:00,49.2,47.3,30.11,WNW,302,2.0,2.0,93,0.00,,SKC,0.00,VWS V14.01,2013-08-14 12:04:00,
2013-08-14 08:09:00,49.6,47.7,30.11,West,279,0.0,1.0,93,0.00,,SKC,0.00,VWS V14.01,2013-08-14 12:09:00,
2013-08-14 08:14:00,50.0,48.1,30.12,West,280,4.0,4.0,93,0.00,,SKC,0.00,VWS V14.01,2013-08-14 12:14:00,
2013-08-14 08:19:00,50.3,48.1,30.12,WSW,254,0.0,3.0,92,0.00,,SKC,0.00,VWS V14.01,2013-08-14 12:19:00,
2013-08-14 08:24:00,50.6,48.4,30.11,NW,312,2.0,7.0,92,0.00,,SKC,0.00,VWS V14.01,2013-08-14 12:24:00,
2013-08-14 08:29:00,51.1,48.9,30.12,NW,306,1.0,5.0,92,0.00,,SKC,0.00,VWS V14.01,2013-08-14 12:29:00,
2013-08-14 08:34:00,51.5,49.3,30.12,NNW,339,0.0,5.0,92,0.00,,SKC,0.00,VWS V14.01,2013-08-14 12:34:00,
2013-08-14 08:39:00,51.9,49.4,30.12,NNW,328,2.0,6.0,91,0.00,,SKC,0.00,VWS V14.01,2013-08-14 12:39:00,
2013-08-14 08:44:00,52.3,49.5,30.12,WNW,293,3.0,8.0,90,0.00,,SKC,0.00,VWS V14.01,2013-08-14 12:44:00,
2013-08-14 08:49:00,52.9,49.8,30.11,WNW,296,5.0,6.0,89,0.00,,SKC,0.00,VWS V14.01,2013-08-14 12:49:00,
2013-08-14 08:54:00,53.6,50.1,30.12,NNW,337,6.0,6.0,88,0.00,,SKC,0.00,VWS V14.01,2013-08-14 12:54:00,
2013-08-14 08:59:00,54.4,50.6,30.12,NW,326,6.0,6.0,87,0.00,,SKC,0.00,VWS V14.01,2013-08-14 12:59:00,
2013-08-14 09:04:00,55.2,51.1,30.12,NW,315,4.0,5.0,86,0.00,,SKC,0.00,VWS V14.01,2013-08-14 13:04:00,
2013-08-14 09:09:00,55.5,50.4,30.12,WNW,290,2.0,9.0,83,0.00,,SKC,0.00,VWS V14.01,2013-08-14 13:09:00,
2013-08-14 09:14:00,55.9,50.5,30.12,NW,319,2.0,6.0,82,0.00,,SKC,0.00,VWS V14.01,2013-08-14 13:14:00,
2013-08-14 09:19:00,56.3,50.5,30.12,NNW,342,6.0,9.0,81,0.00,,SKC,0.00,VWS V14.01,2013-08-14 13:19:00,
2013-08-14 09:24:00,56.8,50.7,30.12,NNE,23,5.0,5.0,80,0.00,,SKC,0.00,VWS V14.01,2013-08-14 13:24:00,
2013-08-14 09:29:00,57.0,50.6,30.12,NNW,343,8.0,10.0,79,0.00,,SKC,0.00,VWS V14.01,2013-08-14 13:29:00,
2013-08-14 09:34:00,57.3,50.5,30.12,NNW,338,4.0,6.0,78,0.00,,SKC,0.00,VWS V14.01,2013-08-14 13:34:00,
2013-08-14 09:39:00,57.9,50.7,30.12,NNW,339,4.0,8.0,77,0.00,,SKC,0.00,VWS V14.01,2013-08-14 13:39:00,
2013-08-14 09:44:00,58.0,50.5,30.12,North,351,8.0,10.0,76,0.00,,SKC,0.00,VWS V14.01,2013-08-14 13:44:00,
2013-08-14 09:49:00,58.2,50.7,30.12,NNW,342,5.0,8.0,76,0.00,,SKC,0.00,VWS V14.01,2013-08-14 13:49:00,
2013-08-14 09:54:00,58.6,50.7,30.12,NW,315,5.0,10.0,75,0.00,,SKC,0.00,VWS V14.01,2013-08-14 13:54:00,
2013-08-14 09:59:00,59.0,51.1,30.12,NNW,336,4.0,6.0,75,0.00,,SKC,0.00,VWS V14.01,2013-08-14 13:59:00,
2013-08-14 10:04:00,59.7,51.4,30.13,North,360,1.0,3.0,74,0.00,,SKC,0.00,VWS V14.01,2013-08-14 14:04:00,
2013-08-14 10:09:00,60.1,50.7,30.13,NW,315,6.0,7.0,71,0.00,,SKC,0.00,VWS V14.01,2013-08-14 14:09:00,
2013-08-14 10:14:00,60.4,51.0,30.13,North,5,3.0,4.0,71,0.00,,SKC,0.00,VWS V14.01,2013-08-14 14:14:00,
2013-08-14 10:19:00,60.6,50.8,30.13,NNW,328,3.0,4.0,70,0.00,,SKC,0.00,VWS V14.01,2013-08-14 14:19:00,
2013-08-14 10:24:00,61.1,51.2,30.13,West,263,0.0,7.0,70,0.00,,SKC,0.00,VWS V14.01,2013-08-14 14:24:00,
2013-08-14 10:29:00,61.8,51.5,30.13,NNW,329,3.0,9.0,69,0.00,,SKC,0.00,VWS V14.01,2013-08-14 14:29:00,
2013-08-14 10:34:00,62.0,50.9,30.14,NNW,344,4.0,4.0,67,0.00,,SKC,0.00,VWS V14.01,2013-08-14 14:34:00,
2013-08-14 10:39:00,62.3,51.6,30.13,NNW,333,5.0,5.0,68,0.00,,SKC,0.00,VWS V14.01,2013-08-14 14:39:00,
2013-08-14 10:44:00,62.5,51.0,30.13,NW,310,7.0,10.0,66,0.00,,SKC,0.00,VWS V14.01,2013-08-14 14:44:00,
2013-08-14 10:50:00,63.1,51.6,30.14,WNW,287,5.0,7.0,66,0.00,,SKC,0.00,VWS V14.01,2013-08-14 14:50:00,
2013-08-14 10:55:00,63.2,51.7,30.13,NNW,338,5.0,8.0,66,0.00,,SKC,0.00,VWS V14.01,2013-08-14 14:55:00,
2013-08-14 11:00:00,63.5,51.5,30.14,NW,313,8.0,13.0,65,0.00,,SKC,0.00,VWS V14.01,2013-08-14 15:00:00,
2013-08-14 11:05:00,63.5,51.1,30.13,NW,317,9.0,9.0,64,0.00,,SKC,0.00,VWS V14.01,2013-08-14 15:05:00,
2013-08-14 11:10:00,64.0,51.6,30.13,NNW,346,4.0,8.0,64,0.00,,SKC,0.00,VWS V14.01,2013-08-14 15:10:00,
2013-08-14 11:15:00,63.8,51.0,30.14,North,355,9.0,10.0,63,0.00,,SKC,0.00,VWS V14.01,2013-08-14 15:15:00,
2013-08-14 11:20:00,63.6,50.8,30.13,NNW,348,1.0,8.0,63,0.00,,SKC,0.00,VWS V14.01,2013-08-14 15:20:00,
2013-08-14 11:25:00,63.9,51.1,30.14,NNE,26,4.0,8.0,63,0.00,,SKC,0.00,VWS V14.01,2013-08-14 15:25:00,
2013-08-14 11:30:00,64.6,51.3,30.14,WNW,301,3.0,9.0,62,0.00,,SKC,0.00,VWS V14.01,2013-08-14 15:30:00,
2013-08-14 11:35:00,65.2,51.4,30.13,NNW,333,6.0,8.0,61,0.00,,SKC,0.00,VWS V14.01,2013-08-14 15:35:00,
2013-08-14 11:40:00,65.2,51.4,30.14,NE,40,3.0,8.0,61,0.00,,SKC,0.00,VWS V14.01,2013-08-14 15:40:00,
2013-08-14 11:45:00,64.9,51.2,30.13,North,355,5.0,5.0,61,0.00,,SKC,0.00,VWS V14.01,2013-08-14 15:45:00,
2013-08-14 11:50:00,64.8,51.5,30.13,ENE,59,3.0,8.0,62,0.00,,SKC,0.00,VWS V14.01,2013-08-14 15:50:00,
2013-08-14 11:55:00,64.7,50.1,30.14,NE,34,2.0,6.0,59,0.00,,SKC,0.00,VWS V14.01,2013-08-14 15:55:00,
2013-08-14 12:00:00,64.6,50.4,30.14,NNW,331,4.0,10.0,60,0.00,,SKC,0.00,VWS V14.01,2013-08-14 16:00:00,
2013-08-14 12:05:00,65.3,50.6,30.14,North,10,4.0,8.0,59,0.00,,SKC,0.00,VWS V14.01,2013-08-14 16:05:00,
2013-08-14 12:10:00,65.3,50.6,30.13,NNW,347,5.0,5.0,59,0.00,,SKC,0.00,VWS V14.01,2013-08-14 16:10:00,
2013-08-14 12:15:00,65.5,51.3,30.13,NNE,25,0.0,5.0,60,0.00,,SKC,0.00,VWS V14.01,2013-08-14 16:15:00,
2013-08-14 12:20:00,65.6,51.8,30.13,North,9,2.0,7.0,61,0.00,,SKC,0.00,VWS V14.01,2013-08-14 16:20:00,
2013-08-14 12:25:00,66.1,50.4,30.13,North,5,5.0,11.0,57,0.00,,SKC,0.00,VWS V14.01,2013-08-14 16:25:00,
2013-08-14 12:30:00,65.8,50.2,30.13,NW,323,1.0,6.0,57,0.00,,SKC,0.00,VWS V14.01,2013-08-14 16:30:00,
2013-08-14 12:35:00,65.9,50.2,30.13,NNW,348,8.0,9.0,57,0.00,,SKC,0.00,VWS V14.01,2013-08-14 16:35:00,
2013-08-14 12:40:00,66.2,51.0,30.13,ENE,59,5.0,7.0,58,0.00,,SKC,0.00,VWS V14.01,2013-08-14 16:40:00,
2013-08-14 12:45:00,66.1,50.4,30.13,NNW,340,4.0,5.0,57,0.00,,SKC,0.00,VWS V14.01,2013-08-14 16:45:00,
2013-08-14 12:51:00,65.9,50.7,30.12,NNW,344,2.0,7.0,58,0.00,,SKC,0.00,VWS V14.01,2013-08-14 16:51:00,
2013-08-14 12:56:00,66.0,50.3,30.12,North,355,5.0,9.0,57,0.00,,SKC,0.00,VWS V14.01,2013-08-14 16:56:00,
2013-08-14 13:01:00,66.1,50.4,30.13,NNW,336,6.0,9.0,57,0.00,,SKC,0.00,VWS V14.01,2013-08-14 17:01:00,
2013-08-14 13:06:00,66.0,50.3,30.13,NNW,347,4.0,6.0,57,0.00,,SKC,0.00,VWS V14.01,2013-08-14 17:06:00,
2013-08-14 13:11:00,65.8,50.6,30.12,NNW,336,4.0,4.0,58,0.00,,SKC,0.00,VWS V14.01,2013-08-14 17:11:00,
2013-08-14 13:16:00,66.1,51.4,30.12,NE,49,7.0,9.0,59,0.00,,SKC,0.00,VWS V14.01,2013-08-14 17:16:00,
2013-08-14 13:21:00,66.0,49.9,30.12,ENE,68,3.0,9.0,56,0.00,,SKC,0.00,VWS V14.01,2013-08-14 17:21:00,
2013-08-14 13:26:00,65.8,51.1,30.12,NE,40,4.0,6.0,59,0.00,,SKC,0.00,VWS V14.01,2013-08-14 17:26:00,
2013-08-14 13:31:00,66.2,49.6,30.12,North,5,1.0,7.0,55,0.00,,SKC,0.00,VWS V14.01,2013-08-14 17:31:00,
2013-08-14 13:36:00,66.7,50.0,30.12,NNE,19,10.0,14.0,55,0.00,,SKC,0.00,VWS V14.01,2013-08-14 17:36:00,
2013-08-14 13:41:00,66.7,50.0,30.12,NNE,17,2.0,6.0,55,0.00,,SKC,0.00,VWS V14.01,2013-08-14 17:41:00,
2013-08-14 13:46:00,67.1,50.4,30.12,NE,49,4.0,10.0,55,0.00,,SKC,0.00,VWS V14.01,2013-08-14 17:46:00,
2013-08-14 13:51:00,66.8,49.1,30.12,NNE,12,4.0,9.0,53,0.00,,SKC,0.00,VWS V14.01,2013-08-14 17:51:00,
2013-08-14 13:56:00,66.9,50.7,30.12,NW,315,9.0,10.0,56,0.00,,SKC,0.00,VWS V14.01,2013-08-14 17:56:00,
2013-08-14 14:01:00,67.4,51.0,30.12,NNW,343,5.0,14.0,57,0.00,,,0.00,weatherlink.com 1.10,2013-08-14 18:01:00,
2013-08-14 14:07:00,67.6,50.9,30.12,NNW,336,3.0,10.0,55,0.00,,SKC,0.00,VWS V14.01,2013-08-14 18:07:00,
2013-08-14 14:12:00,67.6,50.9,30.12,NNW,344,3.0,4.0,55,0.00,,SKC,0.00,VWS V14.01,2013-08-14 18:12:00,
2013-08-14 14:17:00,68.1,49.8,30.11,WSW,246,0.0,5.0,52,0.00,,SKC,0.00,VWS V14.01,2013-08-14 18:17:00,
2013-08-14 14:22:00,68.2,49.9,30.11,NE,44,5.0,5.0,52,0.00,,SKC,0.00,VWS V14.01,2013-08-14 18:22:00,
2013-08-14 14:27:00,68.4,50.1,30.11,North,5,4.0,5.0,52,0.00,,SKC,0.00,VWS V14.01,2013-08-14 18:27:00,
2013-08-14 14:32:00,68.5,51.7,30.11,NE,40,5.0,8.0,55,0.00,,SKC,0.00,VWS V14.01,2013-08-14 18:32:00,
2013-08-14 14:37:00,68.4,51.1,30.11,NNW,333,8.0,8.0,54,0.00,,SKC,0.00,VWS V14.01,2013-08-14 18:37:00,
2013-08-14 14:42:00,68.6,51.8,30.11,NE,42,4.0,6.0,55,0.00,,SKC,0.00,VWS V14.01,2013-08-14 18:42:00,
2013-08-14 14:47:00,69.3,51.5,30.11,NNW,344,9.0,11.0,53,0.00,,SKC,0.00,VWS V14.01,2013-08-14 18:47:00,
2013-08-14 14:53:00,69.4,52.0,30.11,NNE,24,2.0,3.0,54,0.00,,SKC,0.00,VWS V14.01,2013-08-14 18:53:00,
2013-08-14 14:58:00,69.5,51.6,30.11,NW,325,4.0,8.0,53,0.00,,SKC,0.00,VWS V14.01,2013-08-14 18:58:00,
2013-08-14 15:03:00,69.2,51.9,30.11,North,360,3.0,6.0,54,0.00,,SKC,0.00,VWS V14.01,2013-08-14 19:03:00,
2013-08-14 15:08:00,69.5,52.2,30.11,NW,319,1.0,5.0,54,0.00,,SKC,0.00,VWS V14.01,2013-08-14 19:08:00,
2013-08-14 15:13:00,70.2,52.8,30.11,NE,52,1.0,5.0,54,0.00,,SKC,0.00,VWS V14.01,2013-08-14 19:13:00,
2013-08-14 15:18:00,69.8,51.4,30.11,NNW,346,1.0,2.0,52,0.00,,SKC,0.00,VWS V14.01,2013-08-14 19:18:00,
2013-08-14 15:24:00,69.8,50.9,30.11,NE,43,3.0,8.0,51,0.00,,SKC,0.00,VWS V14.01,2013-08-14 19:24:00,
2013-08-14 15:29:00,69.4,51.5,30.11,NE,48,0.0,1.0,53,0.00,,SKC,0.00,VWS V14.01,2013-08-14 19:29:00,
2013-08-14 15:34:00,69.7,51.3,30.11,North,355,1.0,2.0,52,0.00,,SKC,0.00,VWS V14.01,2013-08-14 19:34:00,
2013-08-14 15:39:00,69.4,50.0,30.11,NE,42,2.0,3.0,50,0.00,,SKC,0.00,VWS V14.01,2013-08-14 19:39:00,
2013-08-14 15:44:00,69.1,50.8,30.11,ENE,61,6.0,6.0,52,0.00,,SKC,0.00,VWS V14.01,2013-08-14 19:44:00,
2013-08-14 15:49:00,69.0,50.7,30.11,ENE,57,3.0,4.0,52,0.00,,SKC,0.00,VWS V14.01,2013-08-14 19:49:00,
2013-08-14 15:54:00,68.6,50.3,30.11,NNW,345,5.0,5.0,52,0.00,,SKC,0.00,VWS V14.01,2013-08-14 19:54:00,
2013-08-14 15:59:00,68.8,51.0,30.11,NW,312,3.0,4.0,53,0.00,,SKC,0.00,VWS V14.01,2013-08-14 19:59:00,
2013-08-14 16:04:00,69.0,51.2,30.10,NE,47,0.0,3.0,53,0.00,,SKC,0.00,VWS V14.01,2013-08-14 20:04:00,
2013-08-14 16:09:00,68.8,51.5,30.11,NE,44,4.0,9.0,54,0.00,,SKC,0.00,VWS V14.01,2013-08-14 20:09:00,
2013-08-14 16:14:00,68.3,52.0,30.10,ENE,58,3.0,4.0,56,0.00,,SKC,0.00,VWS V14.01,2013-08-14 20:14:00,
2013-08-14 16:21:00,67.9,51.6,30.11,ENE,65,2.0,5.0,56,0.00,,SKC,0.00,VWS V14.01,2013-08-14 20:21:00,
2013-08-14 16:27:00,67.8,50.1,30.10,ESE,113,1.0,6.0,53,0.00,,SKC,0.00,VWS V14.01,2013-08-14 20:27:00,
2013-08-14 16:32:00,67.8,51.1,30.10,ENE,77,3.0,3.0,55,0.00,,SKC,0.00,VWS V14.01,2013-08-14 20:32:00,
2013-08-14 16:37:00,67.7,52.4,30.10,ESE,111,2.0,2.0,58,0.00,,SKC,0.00,VWS V14.01,2013-08-14 20:37:00,
2013-08-14 16:42:00,67.5,50.8,30.10,ESE,112,1.0,3.0,55,0.00,,SKC,0.00,VWS V14.01,2013-08-14 20:42:00,
2013-08-14 16:47:00,67.4,51.2,30.10,East,90,0.0,1.0,56,0.00,,SKC,0.00,VWS V14.01,2013-08-14 20:47:00,
2013-08-14 16:52:00,67.4,50.7,30.10,NE,51,0.0,1.0,55,0.00,,SKC,0.00,VWS V14.01,2013-08-14 20:52:00,
2013-08-14 16:57:00,67.7,51.0,30.10,NE,34,4.0,4.0,55,0.00,,SKC,0.00,VWS V14.01,2013-08-14 20:57:00,
2013-08-14 17:02:00,68.0,52.2,30.10,East,92,3.0,3.0,57,0.00,,SKC,0.00,VWS V14.01,2013-08-14 21:02:00,
2013-08-14 17:07:00,68.3,52.0,30.10,ENE,58,0.0,1.0,56,0.00,,SKC,0.00,VWS V14.01,2013-08-14 21:07:00,
2013-08-14 17:12:00,68.6,50.3,30.10,ENE,61,0.0,1.0,52,0.00,,SKC,0.00,VWS V14.01,2013-08-14 21:12:00,
2013-08-14 17:17:00,69.7,51.8,30.10,SSE,148,1.0,2.0,53,0.00,,SKC,0.00,VWS V14.01,2013-08-14 21:17:00,
2013-08-14 17:22:00,70.8,51.8,30.10,East,92,0.0,2.0,51,0.00,,SKC,0.00,VWS V14.01,2013-08-14 21:22:00,
2013-08-14 17:27:00,70.5,52.6,30.10,East,84,1.0,4.0,53,0.00,,SKC,0.00,VWS V14.01,2013-08-14 21:27:00,
2013-08-14 17:32:00,69.9,52.0,30.10,ENE,65,4.0,8.0,53,0.00,,SKC,0.00,VWS V14.01,2013-08-14 21:32:00,
2013-08-14 17:37:00,69.3,51.5,30.10,NE,53,5.0,6.0,53,0.00,,SKC,0.00,VWS V14.01,2013-08-14 21:37:00,
2013-08-14 17:42:00,69.0,51.2,30.10,NE,46,2.0,3.0,53,0.00,,SKC,0.00,VWS V14.01,2013-08-14 21:42:00,
2013-08-14 17:48:00,68.6,50.3,30.10,ENE,59,0.0,2.0,52,0.00,,SKC,0.00,VWS V14.01,2013-08-14 21:48:00,
2013-08-14 17:53:00,68.2,51.4,30.10,NE,51,4.0,4.0,55,0.00,,SKC,0.00,VWS V14.01,2013-08-14 21:53:00,
2013-08-14 17:58:00,67.8,52.5,30.10,NE,44,1.0,4.0,58,0.00,,SKC,0.00,VWS V14.01,2013-08-14 21:58:00,
2013-08-14 18:03:00,67.4,52.6,30.10,NE,44,1.0,2.0,59,0.00,,SKC,0.00,VWS V14.01,2013-08-14 22:03:00,
2013-08-14 18:08:00,67.7,51.5,30.10,NE,44,1.0,1.0,56,0.00,,SKC,0.00,VWS V14.01,2013-08-14 22:08:00,
2013-08-14 18:13:00,68.1,51.3,30.10,NE,44,0.0,1.0,55,0.00,,SKC,0.00,VWS V14.01,2013-08-14 22:13:00,
2013-08-14 18:18:00,67.8,52.0,30.10,ENE,70,0.0,0.0,57,0.00,,SKC,0.00,VWS V14.01,2013-08-14 22:18:00,
2013-08-14 18:23:00,67.5,50.8,30.10,ENE,70,0.0,0.0,55,0.00,,SKC,0.00,VWS V14.01,2013-08-14 22:23:00,
2013-08-14 18:28:00,67.6,51.4,30.10,ENE,70,0.0,0.0,56,0.00,,SKC,0.00,VWS V14.01,2013-08-14 22:28:00,
2013-08-14 18:33:00,67.7,51.5,30.10,ENE,70,0.0,0.0,56,0.00,,SKC,0.00,VWS V14.01,2013-08-14 22:33:00,
2013-08-14 18:38:00,67.7,51.9,30.10,ENE,70,0.0,0.0,57,0.00,,SKC,0.00,VWS V14.01,2013-08-14 22:38:00,
2013-08-14 18:43:00,67.7,52.9,30.10,ENE,70,0.0,0.0,59,0.00,,SKC,0.00,VWS V14.01,2013-08-14 22:43:00,
2013-08-14 18:48:00,67.6,52.8,30.09,ENE,70,0.0,0.0,59,0.00,,SKC,0.00,VWS V14.01,2013-08-14 22:48:00,
2013-08-14 18:53:00,67.6,52.8,30.09,ENE,70,0.0,0.0,59,0.00,,SKC,0.00,VWS V14.01,2013-08-14 22:53:00,
2013-08-14 18:58:00,67.8,56.9,30.09,ENE,70,0.0,0.0,68,0.00,,SKC,0.00,VWS V14.01,2013-08-14 22:58:00,
2013-08-14 19:04:00,67.6,57.9,30.09,ENE,70,0.0,0.0,71,0.00,,SKC,0.00,VWS V14.01,2013-08-14 23:04:00,
2013-08-14 19:09:00,67.0,57.3,30.09,ENE,70,0.0,0.0,71,0.00,,SKC,0.00,VWS V14.01,2013-08-14 23:09:00,
2013-08-14 19:14:00,66.5,57.2,30.09,ENE,70,0.0,0.0,72,0.00,,SKC,0.00,VWS V14.01,2013-08-14 23:14:00,
2013-08-14 19:19:00,66.4,57.9,30.09,ENE,70,0.0,0.0,74,0.00,,SKC,0.00,VWS V14.01,2013-08-14 23:19:00,
2013-08-14 19:24:00,66.3,58.2,30.09,ENE,70,0.0,0.0,75,0.00,,SKC,0.00,VWS V14.01,2013-08-14 23:24:00,
2013-08-14 19:29:00,66.1,58.0,30.09,ENE,70,0.0,0.0,75,0.00,,SKC,0.00,VWS V14.01,2013-08-14 23:29:00,
2013-08-14 19:34:00,65.8,57.3,30.09,ENE,70,0.0,0.0,74,0.00,,SKC,0.00,VWS V14.01,2013-08-14 23:34:00,
2013-08-14 19:39:00,65.7,57.6,30.09,ENE,70,0.0,0.0,75,0.00,,SKC,0.00,VWS V14.01,2013-08-14 23:39:00,
2013-08-14 19:44:00,65.7,57.6,30.09,ENE,70,0.0,0.0,75,0.00,,SKC,0.00,VWS V14.01,2013-08-14 23:44:00,
2013-08-14 19:49:00,65.6,57.8,30.09,ENE,70,0.0,0.0,76,0.00,,SKC,0.00,VWS V14.01,2013-08-14 23:49:00,
2013-08-14 19:54:00,65.5,58.1,30.09,ENE,70,0.0,0.0,77,0.00,,SKC,0.00,VWS V14.01,2013-08-14 23:54:00,
2013-08-14 19:59:00,65.3,57.9,30.09,ENE,70,0.0,0.0,77,0.00,,SKC,0.00,VWS V14.01,2013-08-14 23:59:00,
2013-08-14 20:04:00,64.9,57.5,30.09,ENE,70,0.0,0.0,77,0.00,,SKC,0.00,VWS V14.01,2013-08-15 00:04:00,
2013-08-14 20:09:00,64.4,56.7,30.09,ENE,70,0.0,0.0,76,0.00,,SKC,0.00,VWS V14.01,2013-08-15 00:09:00,
2013-08-14 20:14:00,64.0,56.3,30.09,ENE,70,0.0,0.0,76,0.00,,SKC,0.00,VWS V14.01,2013-08-15 00:14:00,
2013-08-14 20:19:00,63.6,55.9,30.09,ENE,70,0.0,0.0,76,0.00,,SKC,0.00,VWS V14.01,2013-08-15 00:19:00,
2013-08-14 20:24:00,63.2,55.5,30.09,ENE,70,0.0,0.0,76,0.00,,SKC,0.00,VWS V14.01,2013-08-15 00:24:00,
2013-08-14 20:30:00,62.8,55.5,30.09,ENE,70,0.0,0.0,77,0.00,,SKC,0.00,VWS V14.01,2013-08-15 00:30:00,
2013-08-14 20:35:00,62.3,55.0,30.09,ENE,70,0.0,0.0,77,0.00,,SKC,0.00,VWS V14.01,2013-08-15 00:35:00,
2013-08-14 20:40:00,61.6,54.0,30.09,ENE,70,0.0,0.0,76,0.00,,SKC,0.00,VWS V14.01,2013-08-15 00:40:00,
2013-08-14 20:45:00,61.1,53.8,30.09,ENE,70,0.0,0.0,77,0.00,,SKC,0.00,VWS V14.01,2013-08-15 00:45:00,
2013-08-14 20:50:00,60.7,53.8,30.09,ENE,70,0.0,0.0,78,0.00,,SKC,0.00,VWS V14.01,2013-08-15 00:50:00,
2013-08-14 20:55:00,60.2,53.3,30.09,ENE,70,0.0,0.0,78,0.00,,SKC,0.00,VWS V14.01,2013-08-15 00:55:00,
2013-08-14 21:00:00,59.7,53.2,30.09,ENE,70,0.0,0.0,79,0.00,,SKC,0.00,VWS V14.01,2013-08-15 01:00:00,
2013-08-14 21:05:00,59.3,52.8,30.09,ENE,70,0.0,0.0,79,0.00,,SKC,0.00,VWS V14.01,2013-08-15 01:05:00,
2013-08-14 21:10:00,59.0,52.5,30.10,ENE,70,0.0,0.0,79,0.00,,SKC,0.00,VWS V14.01,2013-08-15 01:10:00,
2013-08-14 21:15:00,58.8,52.7,30.10,ENE,70,0.0,0.0,80,0.00,,SKC,0.00,VWS V14.01,2013-08-15 01:15:00,
2013-08-14 21:20:00,58.4,52.3,30.10,ENE,70,0.0,0.0,80,0.00,,SKC,0.00,VWS V14.01,2013-08-15 01:20:00,
2013-08-14 21:25:00,58.1,52.3,30.10,ENE,70,0.0,0.0,81,0.00,,SKC,0.00,VWS V14.01,2013-08-15 01:25:00,
2013-08-14 21:30:00,57.8,52.3,30.10,ENE,70,0.0,0.0,82,0.00,,SKC,0.00,VWS V14.01,2013-08-15 01:30:00,
2013-08-14 21:35:00,57.5,52.1,30.10,ENE,70,0.0,0.0,82,0.00,,SKC,0.00,VWS V14.01,2013-08-15 01:35:00,
2013-08-14 21:40:00,57.2,51.8,30.10,ENE,70,0.0,0.0,82,0.00,,SKC,0.00,VWS V14.01,2013-08-15 01:40:00,
2013-08-14 21:45:00,56.9,51.5,30.10,ENE,70,0.0,0.0,82,0.00,,SKC,0.00,VWS V14.01,2013-08-15 01:45:00,
2013-08-14 21:50:00,56.7,51.6,30.11,ENE,70,0.0,0.0,83,0.00,,SKC,0.00,VWS V14.01,2013-08-15 01:50:00,
2013-08-14 21:55:00,56.6,51.5,30.11,ENE,70,0.0,0.0,83,0.00,,SKC,0.00,VWS V14.01,2013-08-15 01:55:00,
2013-08-14 22:00:00,56.3,51.5,30.11,ENE,70,0.0,0.0,84,0.00,,SKC,0.00,VWS V14.01,2013-08-15 02:00:00,
2013-08-14 22:05:00,56.0,51.2,30.11,ENE,70,0.0,0.0,84,0.00,,SKC,0.00,VWS V14.01,2013-08-15 02:05:00,
2013-08-14 22:10:00,55.8,51.4,30.11,ENE,70,0.0,0.0,85,0.00,,SKC,0.00,VWS V14.01,2013-08-15 02:10:00,
2013-08-14 22:15:00,55.6,51.2,30.11,ENE,70,0.0,0.0,85,0.00,,SKC,0.00,VWS V14.01,2013-08-15 02:15:00,
2013-08-14 22:20:00,55.3,50.9,30.11,ENE,70,0.0,0.0,85,0.00,,SKC,0.00,VWS V14.01,2013-08-15 02:20:00,
2013-08-14 22:25:00,55.0,50.6,30.11,ENE,70,0.0,0.0,85,0.00,,SKC,0.00,VWS V14.01,2013-08-15 02:25:00,
2013-08-14 22:30:00,54.7,50.3,30.11,ENE,70,0.0,0.0,85,0.00,,SKC,0.00,VWS V14.01,2013-08-15 02:30:00,
2013-08-14 22:35:00,54.5,50.4,30.11,ENE,70,0.0,0.0,86,0.00,,SKC,0.00,VWS V14.01,2013-08-15 02:35:00,
2013-08-14 22:40:00,54.6,50.5,30.12,ENE,70,0.0,0.0,86,0.00,,SKC,0.00,VWS V14.01,2013-08-15 02:40:00,
2013-08-14 22:45:00,54.6,50.8,30.11,ENE,70,0.0,0.0,87,0.00,,SKC,0.00,VWS V14.01,2013-08-15 02:45:00,
2013-08-14 22:50:00,54.6,50.8,30.12,ENE,70,0.0,0.0,87,0.00,,SKC,0.00,VWS V14.01,2013-08-15 02:50:00,
2013-08-14 22:55:00,54.4,50.6,30.12,ENE,70,0.0,0.0,87,0.00,,SKC,0.00,VWS V14.01,2013-08-15 02:55:00,
2013-08-14 23:00:00,54.2,50.4,30.12,ENE,70,0.0,0.0,87,0.00,,SKC,0.00,VWS V14.01,2013-08-15 03:00:00,
2013-08-14 23:05:00,53.9,50.1,30.12,South,190,1.0,2.0,87,0.00,,SKC,0.00,VWS V14.01,2013-08-15 03:05:00,
2013-08-14 23:10:00,53.9,50.4,30.12,SW,215,4.0,5.0,88,0.00,,SKC,0.00,VWS V14.01,2013-08-15 03:10:00,
2013-08-14 23:15:00,53.7,50.2,30.12,SE,132,2.0,2.0,88,0.00,,SKC,0.00,VWS V14.01,2013-08-15 03:15:00,
2013-08-14 23:20:00,53.3,49.5,30.12,SE,132,0.0,0.0,87,0.00,,SKC,0.00,VWS V14.01,2013-08-15 03:20:00,
2013-08-14 23:26:00,53.0,49.5,30.12,SE,132,0.0,0.0,88,0.00,,SKC,0.00,VWS V14.01,2013-08-15 03:26:00,
2013-08-14 23:31:00,52.6,49.2,30.12,SE,132,0.0,0.0,88,0.00,,SKC,0.00,VWS V14.01,2013-08-15 03:31:00,
2013-08-14 23:36:00,52.4,49.0,30.12,SE,132,0.0,0.0,88,0.00,,SKC,0.00,VWS V14.01,2013-08-15 03:36:00,
2013-08-14 23:41:00,52.1,48.7,30.12,SE,132,0.0,0.0,88,0.00,,SKC,0.00,VWS V14.01,2013-08-15 03:41:00,
2013-08-14 23:46:00,51.9,48.5,30.12,SE,132,0.0,0.0,88,0.00,,SKC,0.00,VWS V14.01,2013-08-15 03:46:00,
2013-08-14 23:51:00,52.1,48.7,30.12,SE,132,0.0,0.0,88,0.00,,SKC,0.00,VWS V14.01,2013-08-15 03:51:00,
2013-08-14 23:56:00,52.2,48.8,30.12,SE,132,0.0,0.0,88,0.00,,SKC,0.00,VWS V14.01,2013-08-15 03:56:00,